Location: Ermatingen
(47.6706°N, 9.0857°E)
Time: 04:14:44
(UTC+00:00)

YAOGAN 1 - Pass Details

Date: 18 September 2020
Orbit: 618 x 620 km, 97.9° (Epoch: 29 October)

Event Time Altitude Azimuth Distance (km) Brightness Sun altitude
Rises 18:21:41 0° 179° (S) 2,885 5.8 -9.6°
Reaches altitude 10° 18:23:55 10° 185° (S) 1,984 5.1 -10.0°
Maximum altitude 18:28:06 49° 260° (W) 805 3.6 -10.7°
Drops below altitude 10° 18:32:20 10° 336° (NNW) 2,000 5.7 -11.4°
Sets 18:34:35 0° 342° (NNW) 2,911 6.5 -11.7°
